This is the latest recevied weather packets stored in our database for station/object AD7ZD. If no packets are shown the sender has not sent any weather packets the latest 10 day(s).
| Time | Temp. | Humidity | Pressure | Rain* | Wind** | Luminosity | Snow |
|---|---|---|---|---|---|---|---|
| 1777945037 | 11.11° C | 60% | 1007.5 hPa | 0 mm | - | 27 W/m² | - |
| 1777944734 | 11.67° C | 60% | 1007.5 hPa | 0 mm | - | 42 W/m² | - |
| 1777944432 | 11.67° C | 60% | 1007.7 hPa | 0 mm | - | 54 W/m² | - |
| 1777944129 | 11.67° C | 61% | 1007.7 hPa | 0 mm | - | 70 W/m² | - |
| 1777943825 | 11.67° C | 61% | 1007.7 hPa | 0 mm | - | 83 W/m² | - |
| 1777943522 | 11.67° C | 61% | 1008 hPa | 0 mm | - | 78 W/m² | - |
| 1777943217 | 12.22° C | 59% | 1008.3 hPa | 0 mm | - | 88 W/m² | - |
| 1777942914 | 11.67° C | 60% | 1007.9 hPa | 0 mm | - | 97 W/m² | - |
| 1777942610 | 11.67° C | 60% | 1007.9 hPa | 0 mm | - | 91 W/m² | - |
| 1777942308 | 11.67° C | 60% | 1007.9 hPa | 0 mm | - | 136 W/m² | - |
| 1777942005 | 11.67° C | 62% | 1008 hPa | 0 mm | - | 124 W/m² | - |
| 1777941701 | 11.67° C | 62% | 1007.9 hPa | 0 mm | - | 144 W/m² | - |
| 1777941398 | 11.67° C | 64% | 1007.9 hPa | 0 mm | - | 122 W/m² | - |
| 1777941096 | 11.67° C | 61% | 1007.9 hPa | 0 mm | - | 100 W/m² | - |
| 1777940792 | 11.67° C | 62% | 1008.4 hPa | 0 mm | - | 60 W/m² | - |
| 1777940490 | 11.67° C | 62% | 1008.1 hPa | 0 mm | - | 42 W/m² | - |
| 1777940187 | 11.67° C | 65% | 1007.9 hPa | 0 mm | - | 48 W/m² | - |
| 1777939884 | 11.67° C | 64% | 1007.7 hPa | 0 mm | - | 92 W/m² | - |
| 1777939581 | 11.67° C | 65% | 1008 hPa | 0 mm | - | 126 W/m² | - |
| 1777939279 | 11.67° C | 65% | 1007.9 hPa | 0 mm | - | 138 W/m² | - |
| 1777938975 | 12.22° C | 65% | 1007.9 hPa | 0 mm | - | 177 W/m² | - |
| 1777938672 | 11.67° C | 67% | 1007.8 hPa | 0 mm | - | 182 W/m² | - |
| 1777938369 | 11.67° C | 67% | 1007.9 hPa | 0 mm | - | 187 W/m² | - |
| 1777938066 | 11.67° C | 68% | 1008.3 hPa | 0 mm | - | 155 W/m² | - |
| 1777937761 | 12.22° C | 65% | 1008.3 hPa | 0 mm | - | 98 W/m² | - |
* Rain latest hour (hover to see other rain measurements)
** Current wind speed in m/s (hover to see current wind gust speed)